Regional Weather Roundup
Issued by NWS

Home | Current Version | Previous Version | Text Only | Print | Product List | Glossary On
Versions: 1 2 3 4 5 6 7 8 9 10 11 12 13 14 15 16 17 18 19 20 21 22 23 24 25 26 27
000
ASUS42 KKEY 201510
RWRKEY

FLORIDA REGIONAL WEATHER ROUNDUP FOR THE FLORIDA KEYS
NATIONAL WEATHER SERVICE KEY WEST FLORIDA
1100 AM EDT SUN MAY 20 2018

...SOUTH FLORIDA AND THE KEYS...

CITY           SKY/WX    TMP DP  RH WIND       PRES   REMARKS
FORT MYERS     CLOUDY    77  72  84 SE9       30.06S
SW REGIONAL AP LGT RAIN  74  73  97 SE6       30.07S FOG
NAPLES         CLOUDY    78  76  93 SE7       30.06S
MIAMI          HVY RAIN  72  71  97 S14G21    30.09R FOG
WEST KENDALL   CLOUDY    75  72  90 E10       30.09F
HOMESTEAD      LGT RAIN  72  70  94 SE9       30.08R FOG
MARATHON       PTSUNNY   80  73  79 SE15G21   30.04R
KEY WEST INTL  LGT RAIN  75  32  20 S9        30.04S

...INTERNATIONAL WEATHER...

CITY           SKY/WX    TMP DP  RH WIND       PRES   REMARKS
NASSAU BAHAMAS PTSUNNY   81  72  74 SE17      30.12S
CANCUN MEXICO  PTSUNNY   84  73  70 E7        29.95R HX  91
COZUMEL MEXICO PTSUNNY   86  73  66 E9        29.92S HX  93

ADJACENT COASTAL WATERS...

STATION/POSITION TIME  SKY/WX   TEMP    WIND        PRES    WAVE
                                AIR SEA DIR/SP/G            HT/PER
                 (UTC)          (F)     (DEG/KT/KT) (MB)    (FT/S)
PULASKI SHOAL LI 1500            79     100/ 11/ 12 1016.8F
SAND KEY         1450            76                 1016.8R
SOMBRERO KEY     1450            78      90/ 14/ 18 1016.5R
LONG KEY         1500            79 80  130/ 15/ 17 1017.4R
MOLASSES REEF    1500            76 78  120/ 21/ 23 1018.3R
FOWEY ROCKS      1500            78 78  110/ 24/ 26 1019.0R
Buoy 42097       1430               79                N/A     3/ 5

$$




USA.gov is the U.S. government's official web portal to all federal, state and local government web resources and services.